DW0207 Weather Reports


Display with metric or nautical units.
time (UTC)temp
F
wind
direction
speed
MPH
gust
MPH
rain 1hr
in
rain 24hr
in
rain mn
in
humidity
%
barometer
mb
20180720104936 61 170 0.0 0.0 0.00 0.00 0.00 44 1026.7
20180720103436 61 169 0.0 0.0 0.00 0.00 0.00 44 1026.6
20180720101931 62 169 0.0 0.0 0.00 0.00 0.00 44 1026.4
20180720100431 64 169 0.0 0.0 0.00 0.00 0.00 42 1026.3
20180720094931 64 169 0.0 0.0 0.00 0.00 0.00 41 1026.3
20180720093426 64 169 0.0 0.0 0.00 0.00 0.00 40 1026.3
20180720091926 65 170 0.0 0.0 0.00 0.00 0.00 40 1026.3
20180720090426 66 170 0.0 0.0 0.00 0.00 0.00 38 1026.4
20180720084924 68 170 0.0 0.0 0.00 0.00 0.00 37 1026.7
20180720083421 69 170 0.0 4.0 0.00 0.00 0.00 37 1026.8
20180720081921 68 171 4.0 10.0 0.00 0.00 0.00 37 1027.0
20180720080418 68 176 2.0 7.0 0.00 0.00 0.00 38 1027.0
20180720074919 67 176 1.0 4.0 0.00 0.00 0.00 39 1027.1
20180720073418 66 176 0.0 5.0 0.00 0.00 0.00 40 1027.4
20180720071918 65 176 0.0 0.0 0.00 0.00 0.00 41 1027.7
20180720070414 64 176 0.0 0.0 0.00 0.00 0.00 41 1027.6
20180720064916 64 176 0.0 0.0 0.00 0.00 0.00 42 1027.6
20180720063412 64 176 0.0 0.0 0.00 0.00 0.00 42 1027.3
20180720061908 65 176 0.0 0.0 0.00 0.00 0.00 39 1027.5
20180720060406 68 176 0.0 0.0 0.00 0.00 0.00 36 1027.2
20180720054904 70 176 0.0 8.0 0.00 0.00 0.00 37 1027.0
20180720053403 67 178 7.0 13.0 0.00 0.00 0.00 39 1026.7
20180720051905 68 145 0.0 0.0 0.00 0.00 0.00 34 1025.9
20180720050402 71 145 0.0 0.0 0.00 0.00 0.00 33 1025.9
20180720044901 74 145 0.0 5.0 0.00 0.00 0.00 30 1025.7
20180720043400 74 145 2.0 7.0 0.00 0.00 0.00 30 1025.6
20180720041900 73 145 4.0 9.0 0.00 0.00 0.00 31 1025.7
20180720040359 72 148 5.0 10.0 0.00 0.00 0.00 33 1025.7
20180720034902 72 151 4.0 9.0 0.00 0.00 0.00 32 1025.5
20180720033404 71 152 3.0 9.0 0.00 0.00 0.00 33 1025.4
20180720031900 72 152 0.0 2.0 0.00 0.00 0.00 33 1025.4
20180720030357 74 152 0.0 0.0 0.00 0.00 0.00 34 1025.4
20180720024856 74 152 1.0 6.0 0.00 0.00 0.00 35 1025.3
20180720023355 75 152 2.0 5.0 0.00 0.00 0.00 32 1025.1
20180720021855 77 152 0.0 0.0 0.00 0.00 0.00 30 1024.8
20180720020357 78 152 0.0 3.0 0.00 0.00 0.00 29 1024.6
20180720014854 79 152 0.0 3.0 0.00 0.00 0.00 29 1024.3
20180720013353 80 152 1.0 5.0 0.00 0.00 0.00 28 1024.4
20180720011853 80 152 0.0 8.0 0.00 0.00 0.00 28 1024.4
20180720010356 81 152 3.0 7.0 0.00 0.00 0.00 26 1024.4
20180720004852 81 152 1.0 5.0 0.00 0.00 0.00 26 1024.1
20180720003353 81 152 0.0 5.0 0.00 0.00 0.00 26 1024.0
20180720001851 82 152 2.0 9.0 0.00 0.00 0.00 27 1023.8
20180720000350 82 152 4.0 10.0 0.00 0.00 0.00 26 1023.7
20180719234850 81 152 3.0 10.0 0.00 0.00 0.00 28 1023.8
20180719233348 81 154 3.0 10.0 0.00 0.00 0.00 30 1023.9
20180719231848 80 155 7.0 16.0 0.00 0.00 0.00 29 1024.0
20180719230350 81 141 9.0 19.0 0.00 0.00 0.00 29 1024.0
20180719224847 83 144 9.0 20.0 0.00 0.00 0.00 27 1024.3
20180719223346 81 150 9.0 18.0 0.00 0.00 0.00 30 1024.5
20180719221845 84 169 10.0 21.0 0.00 0.00 0.00 27 1024.5
20180719220349 85 128 8.0 16.0 0.00 0.00 0.00 26 1024.4
20180719214820 86 134 5.0 10.0 0.00 0.00 0.00 23 1024.2
20180719213412 87 146 4.0 11.0 0.00 0.00 0.00 24 1024.1
20180719211819 90 181 6.0 11.0 0.00 0.00 0.00 21 1023.9
20180719210408 93 277 4.0 10.0 0.00 0.00 0.00 16 1023.9
20180719204821 92 298 5.0 13.0 0.00 0.00 0.00 17 1024.0
20180719203315 94 277 2.0 9.0 0.00 0.00 0.00 16 1024.1
20180719201824 93 265 6.0 10.0 0.00 0.00 0.00 15 1024.3
20180719200317 92 317 5.0 10.0 0.00 0.00 0.00 17 1024.5
20180719194827 91 319 4.0 11.0 0.00 0.00 0.00 17 1024.9
20180719193316 90 307 3.0 10.0 0.00 0.00 0.00 19 1025.0
20180719191808 91 168 3.0 9.0 0.00 0.00 0.00 20 1025.1
20180719190320 89 167 1.0 9.0 0.00 0.00 0.00 21 1025.5
20180719184828 88 157 0.0 7.0 0.00 0.00 0.00 21 1025.6
20180719183319 88 155 2.0 10.0 0.00 0.00 0.00 21 1025.8
20180719181815 87 153 2.0 10.0 0.00 0.00 0.00 22 1026.1
20180719180324 86 152 0.0 10.0 0.00 0.00 0.00 24 1026.4
20180719174816 86 153 3.0 8.0 0.00 0.00 0.00 25 1026.8
20180719173328 84 150 2.0 7.0 0.00 0.00 0.00 27 1026.9
20180719171819 83 149 0.0 8.0 0.00 0.00 0.00 27 1027.2
20180719170319 82 148 3.0 8.0 0.00 0.00 0.00 27 1027.4
20180719164726 82 146 1.0 8.0 0.00 0.00 0.00 28 1027.6
20180719163313 81 146 2.0 4.0 0.00 0.00 0.00 30 1027.5
20180719161724 80 146 1.0 4.0 0.00 0.00 0.00 32 1027.7
20180719160319 79 146 1.0 5.0 0.00 0.00 0.00 32 1027.8
20180719154722 78 146 0.0 4.0 0.00 0.00 0.00 34 1027.8
20180719153311 76 146 0.0 4.0 0.00 0.00 0.00 37 1027.9
20180719151721 75 146 0.0 3.0 0.00 0.00 0.00 40 1028.2
20180719150314 74 146 1.0 4.0 0.00 0.00 0.00 41 1028.4
20180719144726 72 146 0.0 4.0 0.00 0.00 0.00 43 1028.6
20180719143316 71 146 0.0 2.0 0.00 0.00 0.00 43 1028.5
20180719141710 69 146 0.0 0.0 0.00 0.00 0.00 44 1028.6
20180719140151 67 146 0.0 2.0 0.00 0.00 0.00 46 1028.6
20180719134710 66 146 0.0 1.0 0.00 0.00 0.00 48 1028.7
20180719133314 65 146 0.0 3.0 0.00 0.00 0.00 49 1028.6
20180719131648 62 146 0.0 0.0 0.00 0.00 0.00 52 1028.6
20180719130146 59 146 0.0 0.0 0.00 0.00 0.00 56 1028.3
20180719124646 58 146 0.0 0.0 0.00 0.00 0.00 55 1028.2
20180719123143 59 146 0.0 2.0 0.00 0.00 0.00 55 1028.0
20180719121641 57 146 0.0 0.0 0.00 0.00 0.00 58 1027.9
20180719120139 56 146 0.0 0.0 0.00 0.00 0.00 58 1028.0
20180719114638 57 146 0.0 0.0 0.00 0.00 0.00 57 1027.8
20180719113135 57 146 0.0 0.0 0.00 0.00 0.00 57 1027.6
20180719111634 57 146 0.0 0.0 0.00 0.00 0.00 55 1027.5
20180719110138 58 146 0.0 0.0 0.00 0.00 0.00 54 1027.4